Weather History for KFEP - February, 2013

Change the Weather History Date:

Thursday, February 7, 2013

  Actual Average (KRFD) Record (KRFD)
Temperature  
Mean Temperature 31 °F 24 °F  
Max Temperature 36 °F 32 °F 52 °F (2009)
Min Temperature 26 °F 16 °F -16 °F (1972)
Degree Days  
Heating Degree Days 34 41  
Month to date heating degree days 294  
Since 1 July heating degree days 4203  
Cooling Degree Days 0 0  
Month to date cooling degree days 0  
Year to date cooling degree days 0  
Moisture  
Dew Point 31 °F    
Average Humidity 91    
Maximum Humidity 93    
Minimum Humidity 85    
Precipitation  
Precipitation 0.28 in 0.05 in 0.65 in (2013)
Month to date precipitation 0.29  
Year to date precipitation 1.66  
Snow  
Snow 0.00 in 0.30 in 5.00 in (1933)
Month to date snowfall 2.2  
Since 1 July snowfall 25.5  
Snow Depth -    
Sea Level Pressure  
Sea Level Pressure 29.98 in    
Wind  
Wind Speed 7 mph (ENE)    
Max Wind Speed 16 mph    
Max Gust Speed 22 mph    
Visibility 3 miles    
Events Rain , Snow    
T = Trace of Precipitation, MM = Missing Value Source: NWS Daily Summary

Daily Weather History Graph

Daily Weather History Graph

Search for Another Location

Airport or City:

Trip Planner

Search our weather history database for the weather conditions in past years. The results will help you decide how hot, cold, wet, or windy it might be!

Date:

Astronomy

Feb. 07, 2013 Rise Set
Actual Time 7:04 AM CST 5:20 PM CST
Civil Twilight 6:35 AM CST 5:50 PM CST
Nautical Twilight 6:02 AM CST 6:23 PM CST
Astronomical Twilight 5:29 AM CST 6:56 PM CST
Moon 4:45 AM CST (2/7) 2:43 PM CST (2/7)
Length of Visible Light 11h 14m
Length of Day
10h 16m
Waning Crescent, 9% of the Moon is Illuminated
Feb 7
Waning Crescent
Feb 10
New
Feb 17
First Quarter
Feb 25
Full
Mar 4
Last Quarter

Hourly Weather History & Observations

Time (CST) Temp. Windchill Dew Point Humidity Pressure Visibility Wind Dir Wind Speed Gust Speed Precip Events Conditions
12:15 AM 36.1 °F 29.9 °F 32.0 °F 85% 30.06 in 10.0 mi SE 8.1 mph - N/A   Clear
12:35 AM 36.1 °F 29.9 °F 32.2 °F 86% 30.06 in 7.0 mi SE 8.1 mph - N/A   Mostly Cloudy
12:55 AM 36.1 °F 29.9 °F 32.2 °F 86% 30.06 in 7.0 mi SE 8.1 mph - N/A   Mostly Cloudy
1:15 AM 36.1 °F 29.9 °F 32.2 °F 86% 30.05 in 7.0 mi SE 8.1 mph - N/A   Mostly Cloudy
1:35 AM 36.1 °F 28.2 °F 32.2 °F 86% 30.04 in 7.0 mi SE 11.5 mph - N/A   Overcast
1:55 AM 36.1 °F 28.7 °F 32.4 °F 86% 30.05 in 7.0 mi SE 10.4 mph - N/A   Overcast
2:15 AM 36.1 °F 28.2 °F 32.4 °F 86% 30.04 in 7.0 mi SE 11.5 mph - N/A   Overcast
2:35 AM 36.1 °F 28.7 °F 32.4 °F 86% 30.03 in 7.0 mi SE 10.4 mph - N/A   Overcast
2:55 AM 36.1 °F 28.7 °F 32.9 °F 88% 30.03 in 7.0 mi SE 10.4 mph - N/A   Overcast
3:15 AM 36.1 °F 29.3 °F 32.9 °F 88% 30.02 in 7.0 mi SE 9.2 mph - N/A   Overcast
3:35 AM 36.1 °F 29.3 °F 33.1 °F 89% 30.02 in 5.0 mi SE 9.2 mph - N/A   Drizzle
3:55 AM 36.1 °F 29.9 °F 33.3 °F 89% 30.02 in 5.0 mi SE 8.1 mph - N/A   Overcast
4:15 AM 36.1 °F 30.6 °F 33.4 °F 90% 30.02 in 5.0 mi ESE 6.9 mph - N/A   Overcast
4:35 AM 34.9 °F 29.0 °F 32.5 °F 91% 30.01 in 4.0 mi ESE 6.9 mph - N/A   Overcast
4:55 AM 35.1 °F 28.6 °F 32.9 °F 92% 30.01 in 4.0 mi ESE 8.1 mph - N/A   Light Drizzle
5:15 AM 35.1 °F 29.3 °F 32.9 °F 92% 30.01 in 4.0 mi ESE 6.9 mph - N/A   Overcast
5:35 AM 34.9 °F 29.9 °F 32.9 °F 92% 30.01 in 4.0 mi SE 5.8 mph - N/A   Light Drizzle
5:55 AM 34.9 °F 30.8 °F 32.9 °F 92% 30.01 in 3.0 mi ESE 4.6 mph - N/A   Drizzle
6:15 AM 34.9 °F 29.0 °F 32.9 °F 92% 30.00 in 3.0 mi ESE 6.9 mph - N/A   Light Drizzle
6:35 AM 34.9 °F 29.0 °F 32.9 °F 92% 30.00 in 3.0 mi ESE 6.9 mph - N/A   Light Drizzle
6:55 AM 34.7 °F 28.8 °F 32.5 °F 92% 29.99 in 3.0 mi ESE 6.9 mph - 0.01 in   Light Drizzle
7:15 AM 33.8 °F 27.7 °F 32.0 °F 93% 29.99 in 2.0 mi ESE 6.9 mph - N/A   Light Drizzle
7:35 AM 33.8 °F 27.7 °F 32.0 °F 93% 29.99 in 1.8 mi East 6.9 mph - N/A   Light Drizzle
7:55 AM 33.8 °F 27.7 °F 32.0 °F 93% 30.00 in 1.8 mi ESE 6.9 mph - N/A   Overcast
8:15 AM 33.8 °F 27.7 °F 32.0 °F 93% 29.99 in 2.0 mi ESE 6.9 mph - N/A Rain Light Rain
8:35 AM 33.8 °F 28.6 °F 32.0 °F 93% 30.00 in 2.0 mi ESE 5.8 mph - N/A   Light Drizzle
8:55 AM 33.8 °F 27.7 °F 32.0 °F 93% 30.00 in 1.8 mi ESE 6.9 mph - N/A   Drizzle
9:15 AM 33.8 °F 28.6 °F 32.0 °F 93% 29.99 in 1.8 mi East 5.8 mph - 0.01 in   Drizzle
9:35 AM 33.8 °F 29.6 °F 32.0 °F 93% 29.99 in 1.2 mi East 4.6 mph - 0.02 in Rain Light Rain
9:55 AM 33.8 °F 29.6 °F 32.0 °F 93% 29.99 in 1.2 mi East 4.6 mph - 0.03 in Rain Light Rain
10:15 AM 33.8 °F 30.8 °F 32.0 °F 93% 29.99 in 1.0 mi East 3.5 mph - 0.01 in Rain Light Rain
10:35 AM 33.8 °F 30.8 °F 32.0 °F 93% 29.99 in 1.0 mi East 3.5 mph - 0.02 in Rain Rain
10:55 AM 33.8 °F 29.6 °F 32.0 °F 93% 29.99 in 1.0 mi East 4.6 mph - 0.04 in Rain Rain
11:15 AM 33.8 °F 29.6 °F 32.0 °F 93% 29.98 in 1.0 mi East 4.6 mph - N/A Rain Rain
11:35 AM 33.8 °F 29.6 °F 32.0 °F 93% 29.97 in 1.0 mi East 4.6 mph - 0.05 in Rain Rain
11:55 AM 33.8 °F 30.8 °F 32.0 °F 93% 29.96 in 1.0 mi ENE 3.5 mph - 0.07 in Rain Rain
12:15 PM 33.8 °F 30.8 °F 32.0 °F 93% 29.95 in 1.0 mi ENE 3.5 mph - 0.02 in Rain Light Rain
12:35 PM 33.8 °F 30.8 °F 32.0 °F 93% 29.94 in 1.0 mi NE 3.5 mph - 0.03 in Rain Light Rain
12:55 PM 33.8 °F 30.8 °F 32.0 °F 93% 29.93 in 1.0 mi NE 3.5 mph - 0.05 in Rain Light Rain
1:15 PM 33.8 °F 30.8 °F 32.0 °F 93% 29.92 in 1.0 mi ENE 3.5 mph - 0.02 in Rain Light Rain
1:35 PM 33.8 °F 30.8 °F 32.0 °F 93% 29.92 in 0.8 mi ENE 3.5 mph - 0.02 in Snow Light Snow
1:55 PM 33.8 °F 30.8 °F 32.0 °F 93% 29.91 in 0.5 mi ENE 3.5 mph - 0.03 in Snow Light Snow
2:15 PM 33.8 °F 30.8 °F 32.0 °F 93% 29.91 in 0.5 mi ENE 3.5 mph - 0.01 in Snow Light Snow
2:35 PM 33.8 °F - 32.0 °F 93% 29.90 in 0.5 mi Calm Calm - 0.02 in Snow Light Snow
2:55 PM 33.8 °F 30.8 °F 32.0 °F 93% 29.90 in 0.5 mi NNE 3.5 mph - 0.03 in Snow Light Snow
3:15 PM 33.8 °F 30.8 °F 32.0 °F 93% 29.90 in 0.5 mi North 3.5 mph - 0.01 in Snow Light Snow
3:35 PM 33.8 °F 30.8 °F 32.0 °F 93% 29.90 in 0.5 mi North 3.5 mph - 0.01 in Snow Light Snow
3:55 PM 33.8 °F - 32.0 °F 93% 29.90 in 0.5 mi Calm Calm - 0.02 in Snow Light Snow
4:15 PM 33.8 °F 30.8 °F 32.0 °F 93% 29.90 in 0.5 mi NNW 3.5 mph - N/A Snow Light Snow
4:35 PM 33.8 °F 30.8 °F 32.0 °F 93% 29.90 in 0.5 mi NNW 3.5 mph - N/A Snow Light Snow
4:55 PM 33.8 °F 30.8 °F 32.0 °F 93% 29.91 in 0.8 mi NW 3.5 mph - N/A Snow Light Snow
5:15 PM 33.8 °F 29.6 °F 32.0 °F 93% 29.91 in 0.5 mi NW 4.6 mph - N/A Snow Light Snow
5:35 PM 33.8 °F 27.7 °F 32.0 °F 93% 29.92 in 1.0 mi NW 6.9 mph - N/A Snow Light Snow
5:55 PM 33.8 °F 29.6 °F 32.0 °F 93% 29.92 in 1.5 mi NW 4.6 mph - N/A Snow Light Snow
6:15 PM 33.8 °F 28.6 °F 32.0 °F 93% 29.93 in 1.5 mi NW 5.8 mph - N/A Snow Light Snow
6:35 PM 33.8 °F 28.6 °F 32.0 °F 93% 29.94 in 1.5 mi NNW 5.8 mph - N/A Snow Light Snow
6:55 PM 33.8 °F 28.6 °F 32.0 °F 93% 29.94 in 2.0 mi NNW 5.8 mph - N/A Snow Light Snow
7:15 PM 33.8 °F 27.0 °F 32.0 °F 93% 29.95 in 2.5 mi NNW 8.1 mph - N/A Snow Light Snow
7:35 PM 33.8 °F 25.3 °F 32.0 °F 93% 29.96 in 2.0 mi NNW 11.5 mph 17.3 mph N/A Snow Light Snow
7:55 PM 33.8 °F 24.8 °F 32.0 °F 93% 29.97 in 1.8 mi NNW 12.7 mph 18.4 mph N/A Snow Light Snow
8:15 PM 33.8 °F 26.4 °F 32.0 °F 93% 29.99 in 2.0 mi NW 9.2 mph - N/A Snow Light Snow
8:35 PM 31.5 °F 22.3 °F 29.7 °F 93% 29.99 in 1.5 mi NW 11.5 mph - N/A Snow Light Snow
8:55 PM 31.5 °F 22.3 °F 29.7 °F 93% 30.00 in 1.0 mi NW 11.5 mph - N/A Snow Snow
9:15 PM 31.5 °F 21.8 °F 29.3 °F 92% 30.00 in 1.8 mi NW 12.7 mph 17.3 mph N/A Snow Light Snow
9:35 PM 31.5 °F 21.8 °F 29.3 °F 92% 30.01 in 3.0 mi NW 12.7 mph - N/A Snow Light Snow
9:55 PM 30.9 °F 23.5 °F 28.6 °F 91% 30.01 in 7.0 mi NNW 8.1 mph - N/A   Overcast
10:15 PM 30.2 °F 20.8 °F 27.7 °F 90% 30.02 in 7.0 mi NNW 11.5 mph - N/A Snow Light Snow
10:35 PM 28.8 °F 18.4 °F 26.1 °F 90% 30.03 in 5.0 mi NNW 12.7 mph 18.4 mph N/A Snow Light Snow
10:55 PM 28.8 °F 19.5 °F 25.7 °F 88% 30.03 in 10.0 mi NNW 10.4 mph 16.1 mph N/A   Scattered Clouds
11:15 PM 28.8 °F 19.0 °F 25.7 °F 88% 30.05 in 10.0 mi NNW 11.5 mph 16.1 mph N/A   Mostly Cloudy
11:35 PM 26.6 °F 14.3 °F 24.8 °F 93% 30.06 in 10.0 mi NNW 16.1 mph 21.9 mph N/A   Overcast
11:55 PM 26.2 °F 14.7 °F 23.0 °F 88% 30.06 in 10.0 mi NNW 13.8 mph - N/A   Overcast